Probability
0 0 0 0 0 0 0 0 0 0 0 0 0 0 0 0 0 0 1 2 3 8 14 18 19 19 18 18 19 18 17 18 17 14 11 10 10 9 8 5 2 1 1 0 0 0 0 0 1
0 0 0 0 0 0 0 0 0 0 0 0 0 0 0 0 0 0 2 4 6 9 13 17 20 19 19 19 20 19 19 20 20 16 12 10 10 10 10 6 3 2 1 0 0 0 0 0 1
0 0 0 0 0 0 0 0 0 0 0 0 0 0 1 1 1 2 4 6 9 11 14 19 22 20 19 19 19 18 18 19 19 16 12 10 10 11 11 7 4 1 1 1 0 0 0 0 1
0 0 0 0 0 0 0 0 0 0 0 0 0 1 3 4 4 5 8 10 12 12 14 22 26 23 20 18 17 16 16 17 17 15 11 10 10 11 10 9 6 3 1 1 1 1 1 1 1
0 0 0 0 0 0 0 0 0 0 0 0 0 1 5 7 7 9 12 14 14 12 15 23 27 25 22 20 19 18 17 16 17 16 13 11 11 10 10 9 8 5 3 2 2 2 3 3 3
0 0 0 0 0 0 0 0 0 0 0 0 0 2 7 11 11 12 14 15 14 13 15 21 24 24 23 22 23 22 19 17 17 18 15 13 11 10 10 9 9 7 6 4 3 3 3 4 4
0 0 0 0 0 0 0 0 0 0 0 0 0 2 8 14 15 16 17 17 15 14 15 17 18 19 21 23 24 24 21 20 20 19 16 12 11 10 10 10 9 9 8 6 4 3 3 2 2
0 0 0 0 0 0 0 0 0 0 0 0 0 2 10 18 22 24 24 22 19 18 19 18 15 15 18 19 20 22 22 22 22 20 15 11 9 10 9 9 9 10 9 8 6 4 2 1 0
0 0 0 0 0 0 0 0 0 0 0 0 1 5 14 24 29 31 30 27 24 23 24 22 17 15 16 16 17 18 19 21 21 19 15 10 8 9 9 8 9 10 9 9 7 4 1 0 0
0 0 0 0 0 0 0 0 0 0 0 0 3 9 18 26 32 34 33 30 26 24 24 23 20 19 20 20 20 20 19 20 20 17 15 12 10 10 10 10 10 9 8 7 5 3 1 1 1
0 0 0 0 0 0 0 0 0 0 0 0 3 10 18 25 31 32 31 28 24 22 21 22 23 24 26 27 26 25 24 24 22 19 18 16 14 14 13 12 11 9 7 5 3 3 3 3 2
0 0 0 0 0 0 0 0 0 0 0 0 3 10 18 23 26 29 28 24 21 20 20 21 24 27 29 29 27 25 25 24 22 21 20 18 17 16 14 13 12 10 8 6 4 4 4 4 4
0 0 0 0 0 0 0 0 0 0 1 2 4 10 17 20 23 27 27 24 20 19 19 21 24 26 27 28 26 23 22 21 21 20 19 18 17 16 14 13 12 11 9 7 5 4 4 4 4
0 0 0 0 0 0 0 0 0 1 2 4 5 9 12 16 20 25 26 26 24 20 18 20 22 24 26 26 25 22 20 20 20 18 16 17 18 17 15 13 11 9 8 6 5 4 3 3 4
0 0 0 0 0 0 0 0 0 1 3 4 5 7 10 12 16 20 24 27 27 22 19 21 22 24 26 26 25 23 21 21 19 17 15 16 18 17 14 12 10 7 5 4 4 4 4 3 4
0 0 0 0 0 0 0 0 0 1 2 3 5 7 10 13 14 17 21 25 27 24 23 24 24 25 27 26 25 24 22 21 20 17 16 15 15 14 11 10 8 6 4 3 3 4 4 4 5
0 0 0 0 0 0 0 1 1 1 1 3 5 8 12 14 14 15 18 22 25 27 27 25 23 24 25 24 24 25 24 22 19 17 15 14 12 12 11 9 7 6 5 4 4 4 5 6 6
0 0 0 0 0 0 0 1 1 1 0 2 5 8 11 14 14 15 17 19 23 27 27 25 24 23 23 23 22 23 22 20 18 15 12 10 11 11 10 9 7 6 5 5 5 5 5 6 6
0 0 0 0 0 0 0 0 0 0 0 2 5 7 10 13 15 17 18 18 21 24 25 25 23 22 22 23 22 19 17 16 15 13 9 8 10 11 9 8 6 5 4 4 4 4 4 5 6
0 0 0 0 0 0 0 0 0 0 0 2 4 6 9 14 16 19 20 18 18 21 22 22 22 22 22 23 21 17 13 12 12 11 9 8 8 9 8 7 6 4 3 3 3 3 3 3 4
0 0 0 0 0 0 0 0 0 0 0 1 2 5 8 13 16 19 21 18 16 17 18 20 24 25 24 23 21 17 14 11 10 10 10 10 9 10 9 7 6 6 4 3 3 3 2 2 2
0 0 0 0 0 0 0 0 1 1 1 1 2 4 7 10 14 18 19 19 18 16 15 20 26 27 25 24 22 19 15 12 9 10 11 12 12 12 11 9 8 8 5 3 3 4 3 1 1
0 0 0 0 0 0 0 0 1 1 2 2 3 4 7 11 14 16 18 19 18 17 16 19 25 26 23 22 21 19 16 13 10 9 10 11 12 13 13 10 9 9 7 5 5 5 3 1 1
0 0 0 0 0 0 0 0 0 1 1 1 3 4 8 15 17 17 18 18 17 17 16 17 20 23 21 20 19 17 15 15 12 9 8 9 11 13 13 11 10 10 9 8 8 7 5 3 3
0 0 0 0 0 0 0 0 0 0 0 1 2 4 8 15 20 20 19 16 14 14 13 13 17 20 21 20 18 15 13 13 12 9 7 8 10 13 13 12 11 11 10 10 10 9 7 6 6
0 0 0 0 0 0 0 0 0 0 0 0 1 3 7 13 18 20 17 13 10 9 9 12 15 18 20 20 17 13 11 10 8 7 7 8 11 13 13 13 12 12 12 13 13 11 9 8 7
0 0 0 0 0 0 0 0 1 1 0 0 0 1 4 9 15 17 13 9 7 7 9 12 15 16 18 19 17 13 11 10 8 6 6 8 10 12 12 12 12 12 12 14 14 12 11 10 7
0 0 0 0 0 0 0 0 1 2 1 0 0 1 2 6 11 13 11 8 7 6 7 10 13 15 16 16 15 13 12 11 9 7 7 9 11 12 10 9 9 9 10 12 12 11 11 9 8
0 0 0 0 0 0 0 0 2 2 1 0 0 0 1 3 7 10 10 9 6 4 5 7 10 12 14 13 12 11 11 10 9 7 7 9 11 10 7 5 5 6 7 10 11 10 8 8 9
0 0 0 0 0 0 0 1 2 2 1 0 0 0 0 2 5 8 9 8 6 4 4 6 9 11 12 11 9 9 9 9 8 7 6 7 9 8 5 2 3 5 7 11 11 9 7 8 9
Wind_Speed
8 7 6 6 7 4 4 5 3 3 3 4 2 1 2 4 5 5 6 8 9 11 14 15 12 12 11 10 10 10 11 11 11 11 11 11 11 11 10 10 10 9 10 10 10 10 10 9 8
5 5 7 7 6 3 5 4 4 4 4 2 2 1 1 3 5 5 7 8 10 12 12 13 14 12 11 11 10 10 11 11 11 11 11 11 11 10 10 10 10 9 9 9 9 9 9 8 7
6 7 6 5 2 1 5 5 4 3 2 2 2 1 2 3 4 4 7 10 11 11 11 13 14 12 11 11 11 10 11 11 11 11 10 10 10 10 9 10 10 9 9 8 9 8 8 8 7
6 6 6 5 2 3 3 4 2 2 3 1 1 3 4 4 3 5 10 11 12 12 12 14 13 12 11 11 11 11 10 10 10 10 10 10 10 10 9 9 9 9 8 8 8 7 7 7 7
7 6 6 4 3 2 1 2 0 1 1 2 2 1 4 4 4 8 11 11 11 11 11 14 13 12 12 11 10 10 10 9 9 9 9 9 9 9 8 8 8 8 8 8 8 7 6 6 6
6 6 6 4 3 2 2 1 2 2 1 2 2 2 4 6 6 9 11 10 10 11 11 13 13 12 11 11 10 10 9 9 8 8 8 8 8 8 8 8 8 8 8 8 7 7 6 6 6
6 5 5 3 2 3 2 0 2 2 2 1 2 2 5 6 7 9 10 10 10 10 10 11 12 12 12 10 10 10 9 8 8 8 8 8 8 8 8 7 8 7 7 7 7 7 6 6 6
6 5 6 5 4 2 2 1 2 3 2 1 2 3 3 7 8 9 9 9 9 9 9 9 10 10 11 11 11 10 9 8 8 8 8 8 8 8 8 8 8 7 7 7 6 6 6 6 6
6 8 6 4 3 1 1 3 2 3 2 3 3 2 3 10 11 10 9 9 9 8 8 8 9 9 8 9 10 10 10 9 9 8 8 8 8 8 8 7 7 7 7 7 7 6 6 6 7
7 7 4 2 3 4 4 5 4 4 6 5 5 3 6 10 11 11 10 10 10 10 9 8 8 8 8 6 7 7 7 8 7 7 8 6 4 4 4 8 7 7 6 7 7 6 7 7 6
6 6 3 4 5 6 7 7 6 8 7 5 4 5 8 10 11 11 10 10 9 9 9 8 7 7 7 5 5 4 4 5 6 7 7 5 4 4 4 4 6 6 7 6 7 7 4 4 2
7 6 6 6 5 7 8 7 7 8 7 5 4 4 8 10 10 10 9 9 8 8 8 8 8 7 6 5 5 5 4 4 4 6 6 5 4 3 3 3 4 4 3 3 3 2 3 3 3
9 7 6 7 7 8 8 8 8 7 5 3 2 5 8 9 9 8 7 7 7 7 7 7 7 7 6 5 4 4 4 4 4 5 5 5 4 4 4 3 3 3 3 4 3 3 3 3 3
5 7 8 8 7 7 8 8 7 6 4 3 4 6 8 8 8 7 7 7 8 7 7 6 7 7 6 5 4 4 4 4 4 4 5 5 4 4 4 4 4 3 3 2 2 3 3 2 2
6 8 9 8 6 5 7 9 7 5 4 4 5 6 7 7 7 7 7 7 7 7 7 6 7 6 6 6 5 4 4 4 4 4 5 5 5 5 4 4 4 3 3 3 2 3 3 3 3
9 10 9 5 5 5 9 9 3 3 5 6 6 6 6 6 6 6 6 6 6 6 6 6 5 6 6 5 5 4 4 4 4 4 5 5 5 5 4 4 4 3 3 3 3 3 3 2 2
9 9 8 5 4 5 9 10 3 3 6 7 7 7 7 7 6 5 6 6 7 6 6 6 6 6 6 5 5 4 4 4 4 4 4 5 5 5 4 3 3 4 3 3 3 3 2 2 2
6 8 9 8 4 7 11 10 5 4 6 7 7 7 7 7 7 6 6 6 6 6 6 6 6 6 6 5 4 4 4 4 3 4 4 5 5 5 4 4 4 4 3 3 2 3 2 2 2
8 10 11 9 4 8 10 10 7 6 7 7 7 8 7 6 6 6 6 6 6 6 6 6 6 6 5 5 5 5 5 4 4 3 5 5 5 5 4 4 5 4 4 3 4 3 4 3 2
10 12 11 7 3 7 9 10 7 7 8 7 7 8 7 6 6 7 7 7 7 7 7 7 7 7 6 5 4 3 4 4 4 4 4 5 5 5 5 4 4 4 3 4 4 3 2 2 3
11 11 10 9 6 8 9 11 9 7 7 7 7 7 7 7 7 7 7 7 7 7 7 6 7 7 7 6 5 4 4 4 4 5 5 5 6 6 4 5 4 4 4 4 4 4 4 3 3
11 7 9 10 10 8 7 10 6 6 6 7 7 7 7 6 7 7 7 8 7 7 7 7 7 7 7 7 6 7 6 5 5 5 4 5 6 6 5 5 5 4 3 3 5 4 3 4 4
8 5 8 10 11 11 9 10 5 5 6 6 6 6 6 6 6 7 7 7 6 6 6 6 6 7 7 7 7 7 6 5 5 5 5 5 5 5 5 5 4 4 4 3 3 3 4 4 4
5 6 9 10 10 11 8 9 5 2 3 3 4 5 6 5 6 6 6 5 5 5 5 5 6 6 7 7 7 7 7 6 6 6 6 6 5 5 5 5 4 4 3 4 4 4 5 4 4
7 8 7 8 8 7 3 6 4 3 2 1 2 4 5 5 6 6 6 5 5 5 5 5 6 6 7 7 7 7 7 7 7 7 6 6 5 4 5 5 4 4 4 4 4 4 5 5 5
7 9 8 8 8 6 4 5 1 3 2 1 1 3 4 5 6 6 6 5 5 5 5 5 6 6 6 7 6 6 6 5 5 6 5 5 4 4 5 5 5 5 5 5 5 5 5 4 5
8 9 9 10 11 10 5 3 2 2 2 2 2 3 4 5 5 6 5 5 5 6 6 6 6 6 6 6 6 6 6 5 5 6 6 5 4 4 5 5 5 5 5 5 5 5 5 5 6
9 6 6 8 8 9 7 6 3 1 2 2 3 4 4 5 5 6 6 5 5 5 5 5 5 5 5 5 5 4 5 5 5 5 5 5 5 4 5 6 6 6 6 6 6 6 5 6 5
8 8 8 8 7 8 8 3 3 2 2 2 2 3 3 5 5 6 5 5 5 5 5 5 4 4 3 3 3 4 4 5 5 5 5 5 5 5 6 6 6 6 6 6 6 6 6 7 6
9 9 9 8 8 8 9 4 4 2 2 2 1 2 2 3 4 5 5 5 5 5 5 5 4 4 3 3 3 4 4 5 5 5 5 5 5 6 6 6 6 6 7 7 7 8 7 7 7
Wind_Direction
206 214 232 238 235 213 100 88 60 76 72 54 50 15 11 13 6 53 94 139 141 144 141 150 153 153 152 149 146 142 141 140 139 138 137 137 135 134 133 131 127 124 123 120 118 117 115 113 113
218 222 233 240 251 179 105 86 74 47 59 95 123 142 94 73 49 88 125 139 148 145 147 153 150 155 154 152 149 146 144 144 144 144 142 142 141 139 137 135 132 127 124 124 122 119 116 115 115
220 238 257 248 249 19 82 80 66 65 102 172 136 93 27 62 92 112 127 146 148 146 150 143 152 156 156 154 152 150 149 146 145 147 147 146 146 144 143 140 137 131 127 125 124 121 119 120 118
234 226 235 242 169 70 42 69 60 124 139 162 178 128 100 63 77 114 135 149 150 151 155 143 157 158 157 156 156 153 151 149 147 145 147 147 149 151 149 146 142 137 134 131 127 125 123 122 124
243 252 232 211 167 106 74 46 336 203 144 161 220 140 112 102 100 126 144 152 155 154 153 146 155 159 160 159 158 156 154 152 149 146 145 147 150 152 152 150 147 144 143 139 134 130 127 124 124
237 244 237 212 159 140 122 111 242 252 183 171 211 197 118 120 134 144 152 157 155 154 154 144 154 161 163 162 161 159 157 155 152 149 148 147 149 154 153 152 151 147 144 141 140 134 129 126 127
260 255 250 240 204 172 118 130 265 294 255 203 229 202 131 138 137 148 153 155 155 157 157 156 162 165 166 166 163 161 159 158 157 156 155 154 153 155 155 153 150 148 148 145 143 137 135 132 133
272 258 233 225 226 194 126 208 288 299 305 52 241 241 142 142 146 149 152 157 156 160 161 162 167 169 173 170 167 165 163 162 160 158 157 157 160 160 160 163 153 155 156 152 147 145 143 139 139
249 246 236 231 241 231 171 246 269 289 247 217 231 307 77 134 151 155 157 161 161 165 166 170 172 173 179 173 162 170 169 168 170 167 164 179 179 168 168 151 148 156 154 151 148 148 150 155 151
237 248 254 289 291 291 279 274 271 244 237 227 205 164 135 152 165 169 172 174 172 173 174 174 176 176 178 173 165 179 182 172 185 173 173 185 173 171 159 135 153 156 157 155 148 155 174 198 169
239 262 280 268 277 283 277 272 261 255 258 260 244 184 165 173 180 184 184 183 179 174 175 174 175 177 179 176 175 176 179 171 183 177 179 178 177 172 170 160 160 167 175 172 159 182 187 179 161
245 256 269 276 280 271 271 270 264 262 280 309 281 196 179 186 191 193 190 187 179 178 181 180 175 177 183 183 180 179 179 175 178 174 189 179 179 176 165 170 160 168 168 162 171 170 154 161 163
237 254 261 265 264 264 264 260 262 267 279 283 226 185 185 191 193 192 190 187 183 184 185 182 180 178 179 181 190 182 183 179 172 174 180 182 182 177 165 160 157 163 153 161 174 159 151 168 177
260 267 266 262 260 250 253 257 247 260 247 219 196 189 190 193 192 187 184 184 187 185 188 183 184 179 178 182 187 180 184 178 178 174 172 185 182 167 166 165 161 158 162 155 168 155 164 177 174
255 259 252 237 244 245 257 250 237 237 215 214 202 193 190 189 190 191 188 186 186 183 183 182 182 175 180 186 189 181 180 179 178 168 171 182 180 164 170 164 170 161 157 155 170 168 179 175 175
234 245 245 219 237 236 252 261 227 199 214 218 205 194 189 189 194 189 187 186 182 180 177 176 181 173 179 186 190 181 175 174 174 167 169 175 172 166 175 172 171 162 169 171 173 194 188 179 186
221 247 261 250 218 244 253 272 257 221 225 221 208 199 193 191 197 188 185 180 176 174 174 173 176 171 175 177 175 169 165 172 171 168 168 166 168 169 178 171 157 176 178 180 192 171 196 185 186
258 266 269 272 248 256 259 266 259 236 235 227 213 205 200 199 196 184 182 176 170 168 170 171 171 167 168 167 167 167 167 169 170 167 162 166 170 171 176 166 165 180 174 175 180 171 189 207 206
281 274 274 279 286 268 261 264 259 240 233 228 215 208 206 201 187 177 177 174 169 168 171 173 170 164 168 167 173 174 172 172 167 166 162 169 168 165 176 165 165 187 178 181 186 191 183 196 197
256 261 267 273 265 271 269 267 258 245 233 228 219 210 206 199 184 177 179 177 176 177 177 173 175 171 177 170 173 168 168 172 170 169 169 172 170 171 178 176 180 179 176 185 190 197 201 192 205
252 259 275 286 285 248 263 258 236 231 221 216 219 217 210 199 192 183 181 184 182 183 183 181 180 179 181 172 168 161 164 168 170 177 175 178 179 181 189 185 193 185 197 183 193 194 202 206 211
256 260 269 273 271 266 253 278 240 216 220 218 213 209 209 200 194 189 185 186 188 188 186 183 182 180 180 181 180 179 179 180 181 181 170 174 182 184 186 190 196 200 203 186 201 193 207 218 220
267 282 262 263 266 274 254 266 262 197 230 219 202 203 204 199 195 195 191 189 185 185 186 185 184 183 183 186 186 191 192 186 175 175 167 177 176 183 184 191 195 200 204 194 210 197 221 225 236
258 254 245 242 251 255 257 265 270 251 258 233 193 196 201 195 194 196 188 182 178 177 180 182 182 186 185 187 190 198 195 189 179 180 174 181 174 179 180 191 194 203 202 193 203 209 213 229 237
230 253 253 241 239 255 240 253 281 350 0 281 203 181 187 190 191 189 183 176 175 178 178 178 179 184 185 186 191 196 197 192 187 188 182 184 181 182 183 194 196 204 204 203 205 210 226 224 227
229 250 266 280 279 282 230 248 329 55 56 101 159 165 169 181 185 181 177 171 174 176 178 177 175 179 183 184 189 192 197 198 189 189 186 188 192 184 178 193 198 204 205 208 207 222 219 224 231
236 239 266 276 278 277 258 251 203 149 176 181 176 177 180 183 183 174 171 171 175 176 178 179 175 179 185 186 186 188 193 199 192 182 192 187 187 184 184 194 200 204 207 213 215 228 226 223 226
253 256 247 259 274 274 262 253 265 217 244 232 213 197 186 180 179 173 172 170 170 168 166 169 175 180 183 185 186 184 186 193 195 193 192 190 190 193 198 203 206 209 211 213 220 226 219 225 231
216 226 241 258 270 279 281 284 42 5 307 262 221 200 183 177 173 167 167 164 160 157 158 162 166 166 169 176 176 178 183 189 194 195 197 196 197 198 207 209 210 214 215 214 221 234 228 229 232
247 244 240 253 257 259 275 282 69 26 345 305 257 208 173 160 159 157 155 155 155 158 157 159 161 159 167 171 173 178 181 187 195 198 200 200 204 207 207 211 218 221 221 221 225 231 231 232 234